sat.trackr.live / text

‹ back to catalog

STARLINK-34172

NORAD 64173 · 2025-113D

PAYLOAD ACTIVE UNKNOWN

§ Identity

Operator
Country
US
Launch date
2025-05-28
Launch site
AFETR
Launch vehicle
Mass (kg)
RCS (m²)

Purposes: comms

External: N2YO · Heavens-Above · Gunter

§ Orbital elements

Epoch: 2026-09-19T18:02:53.035008Z

Period
94.01 min
Inclination
53.1601°
Eccentricity
0.0000686
Mean motion
15.31715537 rev/d
Perigee alt
470.2 km
Apogee alt
471.2 km
Semi-major
6,848.8 km
B*
3.8285e-4
RAAN
267.8395°
Arg perigee
63.4473°
Mean anomaly
296.6599°
Rev number
7,476

§ Raw data

STARLINK-341721 64173U 25113D   26262.75200272  .00011539  00000+0  38285-3 0  99932 64173  53.1601 267.8395 0000686  63.4473 296.6599 15.31715537 74764

JSON: /api/v1/satellites/64173 · /tle

For live sub-satellite position, see the globe view (requires WebGL).

§ Visibility from observer

Set your observer location to see the next 7 days of passes ≥ 10°. The values pass through the URL so the page stays shareable.

No JS? Fill the form by hand. The geolocation button needs JavaScript.